Snowfall_Accumulation
0.0 0.0 0.0 0.0 0.0 0.0 0.0 0.0 0.0 0.0 0.0 0.0 0.0 0.0 0.0 0.0 0.0 0.0 0.0 0.0 0.0 0.0 0.0 0.0 0.0 0.0 0.0 0.0 0.0 0.0 0.0 0.0 0.0 0.0 0.0 0.0 0.0 0.0
0.0 0.0 0.0 0.0 0.0 0.0 0.0 0.0 0.0 0.0 0.0 0.0 0.0 0.0 0.0 0.0 0.0 0.0 0.0 0.0 0.0 0.0 0.0 0.0 0.0 0.0 0.0 0.0 0.0 0.0 0.0 0.0 0.0 0.0 0.0 0.0 0.0 0.0
0.0 0.0 0.0 0.0 0.0 0.0 0.0 0.0 0.0 0.0 0.0 0.0 0.0 0.0 0.0 0.0 0.0 0.0 0.0 0.0 0.0 0.0 0.0 0.0 0.0 0.0 0.0 0.0 0.0 0.0 0.0 0.0 0.0 0.0 0.0 0.0 0.0 0.0
0.0 0.0 0.0 0.0 0.0 0.0 0.0 0.0 0.0 0.0 0.0 0.0 0.0 0.0 0.0 0.0 0.0 0.0 0.0 0.0 0.0 0.0 0.0 0.0 0.0 0.0 0.0 0.0 0.0 0.0 0.0 0.0 0.0 0.0 0.0 0.0 0.0 0.0
0.0 0.0 0.0 0.0 0.0 0.0 0.0 0.0 0.0 0.0 0.0 0.1 0.0 0.0 0.0 0.0 0.0 0.0 0.0 0.0 0.0 0.0 0.0 0.0 0.0 0.0 0.0 0.0 0.0 0.0 0.0 0.0 0.0 0.0 0.0 0.0 0.0 0.0
0.0 0.0 0.0 0.0 0.0 0.0 0.0 0.0 0.0 0.0 0.0 0.1 0.1 0.0 0.0 0.0 0.0 0.0 0.0 0.0 0.0 0.0 0.0 0.0 0.0 0.0 0.0 0.0 0.0 0.0 0.0 0.0 0.0 0.0 0.0 0.0 0.0 0.0
0.0 0.0 0.0 0.0 0.0 0.0 0.0 0.0 0.0 0.0 0.0 0.1 0.1 0.1 0.0 0.0 0.1 0.0 0.0 0.0 0.0 0.0 0.0 0.0 0.0 0.0 0.0 0.0 0.0 0.0 0.0 0.0 0.0 0.0 0.0 0.0 0.0 0.0
0.0 0.0 0.0 0.0 0.0 0.0 0.0 0.0 0.0 0.1 0.1 0.1 0.1 0.1 0.0 0.0 0.0 0.0 0.0 0.0 0.1 0.0 0.0 0.0 0.0 0.0 0.0 0.0 0.0 0.0 0.0 0.0 0.0 0.0 0.0 0.0 0.0 0.0
0.0 0.0 0.0 0.0 0.0 0.0 0.0 0.0 0.0 0.0 0.1 0.1 0.1 0.1 0.1 0.1 0.0 0.0 0.0 0.0 0.0 0.0 0.0 0.0 0.0 0.0 0.0 0.0 0.0 0.0 0.0 0.0 0.0 0.0 0.0 0.0 0.0 0.0
0.0 0.0 0.0 0.0 0.0 0.0 0.0 0.0 0.0 0.0 0.0 0.0 0.1 0.1 0.0 0.0 0.0 0.0 0.0 0.0 0.0 0.0 0.0 0.0 0.0 0.0 0.0 0.0 0.0 0.0 0.0 0.0 0.0 0.0 0.0 0.0 0.0 0.0
0.0 0.0 0.0 0.0 0.0 0.1 0.1 0.1 0.1 0.0 0.0 0.0 0.0 0.0 0.0 0.0 0.0 0.0 0.1 0.2 0.2 0.0 0.0 0.0 0.0 0.0 0.0 0.0 0.0 0.0 0.0 0.0 0.0 0.0 0.0 0.0 0.0 0.0
0.0 0.0 0.0 0.0 0.1 0.2 0.2 0.2 0.2 0.1 0.1 0.1 0.1 0.0 0.0 0.0 0.0 0.1 0.3 0.6 0.5 0.2 0.0 0.0 0.0 0.0 0.1 0.8 1.1 0.5 0.0 0.0 0.0 0.0 0.0 0.0 0.0 0.0
0.1 0.0 0.0 0.1 0.1 0.1 0.1 0.1 0.2 0.4 0.4 0.2 0.1 0.1 0.1 0.1 0.1 0.1 0.3 0.8 1.3 1.1 0.0 0.0 0.0 0.2 1.0 2.2 1.8 1.1 0.5 0.2 0.0 0.0 0.0 0.0 0.0 0.0
0.2 0.1 0.1 0.2 0.1 0.1 0.1 0.1 0.2 0.3 0.2 0.2 0.2 0.2 0.2 0.3 0.4 0.7 0.8 1.1 1.4 1.4 0.9 0.4 0.7 1.2 2.1 2.1 1.4 1.1 0.2 0.0 0.0 0.0 0.0 0.0 0.0 0.0
0.2 0.2 0.2 0.1 0.1 0.0 0.0 0.1 0.1 0.3 0.5 0.7 0.4 0.3 0.3 0.5 0.7 1.2 1.6 1.8 1.8 2.0 2.8 2.1 1.8 2.3 2.4 2.0 1.8 2.1 2.3 1.0 0.4 0.4 0.4 0.1 0.1 0.0
0.3 0.2 0.1 0.0 0.0 0.0 0.1 0.1 0.1 0.5 1.1 1.5 1.2 0.7 0.9 1.2 2.2 3.2 3.8 4.3 5.5 5.5 4.7 3.7 2.9 2.5 2.2 2.0 1.8 2.0 2.0 1.8 1.5 1.1 0.9 0.7 0.4 0.1
0.3 0.1 0.0 0.0 0.0 0.1 0.1 0.2 0.3 0.7 1.4 1.8 2.1 2.4 2.8 3.5 5.3 6.5 6.5 6.2 5.5 4.7 4.0 3.1 2.3 1.6 1.3 1.1 1.1 1.1 1.1 1.0 0.8 0.6 0.4 0.3 0.2 0.1
0.2 0.1 0.1 0.1 0.1 0.2 0.3 0.4 0.5 0.9 1.6 2.3 2.8 3.6 4.9 5.8 6.9 7.3 6.9 5.8 4.6 3.5 2.6 1.8 1.2 0.7 0.5 0.4 0.4 0.4 0.4 0.3 0.2 0.2 0.1 0.1 0.0 0.0
0.4 0.5 0.4 0.4 0.5 0.6 0.7 0.9 1.1 1.5 2.4 3.5 4.8 5.7 6.6 7.2 7.4 6.9 5.8 4.4 3.0 1.9 1.2 0.6 0.4 0.2 0.2 0.1 0.1 0.0 0.0 0.0 0.0 0.0 0.0 0.0 0.0 0.0
1.1 1.5 1.7 1.1 1.1 1.1 1.6 2.1 2.7 3.6 4.3 5.8 6.3 7.1 7.8 8.1 7.3 5.8 4.2 2.6 1.4 0.6 0.3 0.1 0.1 0.0 0.0 0.0 0.0 0.0 0.0 0.0 0.0 0.0 0.0 0.0 0.0 0.0
1.1 1.7 2.1 1.7 1.4 2.2 2.7 3.4 4.5 5.6 6.3 6.9 7.5 8.3 8.4 7.3 5.6 3.8 2.0 0.7 0.3 0.1 0.0 0.0 0.0 0.0 0.0 0.0 0.0 0.0 0.0 0.0 0.0 0.0 0.1 0.2 0.1 0.1
0.7 1.2 1.6 1.6 1.4 2.4 3.2 4.2 5.6 6.6 7.2 7.8 8.4 8.5 7.2 5.2 3.2 1.4 0.4 0.1 0.0 0.0 0.0 0.0 0.0 0.0 0.0 0.0 0.0 0.0 0.0 0.0 0.0 0.0 0.2 0.5 0.6 0.4
0.4 0.9 1.3 1.7 2.0 2.9 4.0 4.8 5.9 7.0 7.9 8.3 8.1 6.9 4.9 2.7 0.8 0.2 0.0 0.0 0.0 0.0 0.0 0.0 0.0 0.0 0.0 0.0 0.0 0.0 0.0 0.0 0.1 0.2 0.3 0.4 0.6 0.7